Location: ??????
(55.7522°N, 37.6156°E)
Time: 23:26:21
(UTC+00:00)

Daily predictions for brighter satellites

Satellite Brightness Start Highest point End
(mag) Time Altitude Azimuth Time Altitude Azimuth Time Altitude Azimuth
NOSS 3-4 (A) 3.2 19:11:16 10° SW 19:16:43 79° SE 19:22:53 10° NE
NOSS 3-4 (C) 3.2 19:11:22 10° SW 19:16:49 79° SE 19:22:59 10° NE
Cosmos 1953 2.5 19:13:53 10° N 19:17:36 55° ENE 19:21:17 10° SSE
Cosmos 2016 Rocket 4.1 19:14:18 10° NNW 19:20:40 86° W 19:27:02 10° S
Lacrosse 4 Rocket 2.7 19:20:16 10° NW 19:23:58 31° WSW 19:27:42 10° S
Cosmos 1818 3.6 19:21:30 10° SSW 19:26:54 67° SE 19:32:20 10° NE
USA 305 3.1 19:24:52 10° SW 19:28:09 29° SSE 19:30:56 10° E
USA 59 Rocket 0.9 19:26:41 10° NW 19:29:34 34° NNE 19:33:03 10° E
Cosmos 2344 3.9 19:22:05 10° NW 19:29:45 87° NE 19:39:50 10° SE
ATLAS 3B R/B 4.1 19:24:13 10° WNW 19:31:49 49° N 19:39:25 10° E
Cosmos 2297 Rocket 2.9 19:29:47 10° SW 19:35:24 60° NW 19:41:02 10° NNE
Ariane Rocket 4.1 19:31:34 10° SSW 19:36:21 40° W 19:41:10 10° NNW
Cosmos 614 Rocket 4.5 19:32:11 10° SW 19:37:19 64° WNW 19:42:26 10° NNE
Cosmos 1455 4.4 19:37:02 10° WNW 19:37:45 11° W 19:38:28 10° W
Cosmos 1892 4.1 19:39:07 10° SE 19:41:02 16° E 19:42:57 10° NE
CZ-4C R/B 4.1 19:38:35 10° NE 19:41:25 27° E 19:44:07 11° SSE
GP-B 3.1 19:37:32 10° N 19:41:58 85° E 19:46:20 10° S
Cosmos 2228 Rocket 4.4 19:40:00 10° SE 19:43:41 26° E 19:47:22 10° NNE
NOSS 3-1 (A) 4.2 19:39:20 10° NW 19:45:52 70° NNE 19:53:59 10° ESE
Cosmos 1269 Rocket 4.3 19:41:27 10° S 19:46:31 51° ESE 19:51:39 10° NE
Cosmos 540 Rocket 4.0 19:44:40 10° NNW 19:49:44 54° NE 19:54:44 10° SE
Cosmos 1933 Rocket 4.5 19:48:32 10° NNW 19:52:43 43° W 19:56:51 10° SSW
SL-16 R/B 3.1 19:48:59 10° NW 19:54:14 40° WSW 19:59:28 10° S
ATLAS CENTAUR R/B 3.6 19:52:48 10° W 19:54:16 12° WSW 19:55:44 10° SW
Cosmos 1707 Rocket 4.5 19:51:02 11° SSE 19:54:47 34° E 19:58:41 10° NNE
Cosmos 2233 Rocket 4.3 19:52:06 10° NNW 19:58:23 68° W 20:04:39 10° S
Meteor 1-23 Rocket 4.4 19:55:16 10° SSW 20:00:51 75° WNW 20:06:31 10° NNE
Terra 4.5 20:00:41 10° WSW 20:02:16 11° W 20:03:50 10° WNW
Cosmos 2227 Rocket 2.6 19:58:15 10° SW 20:03:52 71° NW 20:09:33 10° NNE
ALOS 2 3.4 19:59:47 10° SE 20:03:57 44° ENE 20:08:08 10° N
Cosmos 1733 Rocket 3.1 19:59:37 10° N 20:04:03 77° ENE 20:08:04 12° SSE
DELTA 2 DEB (DPAF) 3.8 20:00:39 10° NNE 20:04:34 85° ESE 20:08:29 10° SSW
Meteor 1-21 4.4 20:01:13 10° SSW 20:06:56 83° WNW 20:12:46 10° NNE
Cosmos 1869 Rocket 4.4 20:02:49 10° NNW 20:07:03 46° W 20:11:13 10° SSW
Aureole 3 Rocket 2.9 20:05:04 10° N 20:08:03 47° ENE 20:11:03 12° SSE
Cosmos 2263 Rocket 2.2 20:02:50 10° SSW 20:08:30 78° ESE 20:14:14 10° NE
Cosmos 1833 Rocket 4.5 20:06:16 10° NNW 20:11:11 29° NNE 20:16:04 10° E
RESURS DK-1 2.5 20:07:22 10° SW 20:11:23 75° NW 20:15:25 10° NE
CZ-2C R/B 4.0 20:09:26 10° NNE 20:13:50 51° E 20:17:58 12° S
Cosmos 1943 3.4 20:10:27 10° NW 20:16:07 66° WSW 20:21:19 12° SSE
IRIDIUM 106 4.4 20:11:23 11° S 20:16:29 79° E 20:21:44 10° N
ASTEX 1 3.5 20:13:24 10° N 20:18:24 72° E 20:23:01 12° S
Okean 2 3.2 20:14:47 10° S 20:18:37 82° E 20:22:32 10° NNE
Okean 3 3.4 20:15:05 10° S 20:19:08 82° E 20:23:14 10° NNE
NOSS 2-1 (D) 3.4 20:16:44 10° NW 20:19:54 62° NNE 20:23:53 10° ESE
SeaSat 1 3.0 20:19:06 10° SE 20:23:54 57° NE 20:28:43 10° NNW
Cosmos 1908 Rocket 4.3 20:19:51 10° N 20:24:03 44° ENE 20:28:00 11° SE
Geosat 4.1 20:21:23 10° NNE 20:26:26 80° NW 20:31:26 10° SW
Cosmos 1437 Rocket 4.5 20:23:53 10° SW 20:26:59 27° WNW 20:30:07 10° N
Cosmos 1763 Rocket 3.5 20:22:47 10° NNW 20:27:58 75° WSW 20:32:29 13° SSE
Cosmos 2219 3.3 20:23:24 10° SSW 20:29:09 89° WNW 20:34:58 10° NE
Cosmos 1603 3.7 20:27:57 10° NW 20:33:36 82° WSW 20:38:51 12° SSE
MetOp-A 4.1 20:32:42 13° S 20:36:57 59° WSW 20:41:23 10° NNW
Cosmos 1862 Rocket 3.6 20:34:29 12° S 20:38:31 79° E 20:42:56 10° NNE
Cosmos 2082 3.7 20:32:56 10° SSW 20:38:40 85° ESE 20:44:27 10° NE
Cosmos 2292 Rocket 2.7 20:36:54 13° SSW 20:39:30 68° WNW 20:42:26 10° N
Cosmos 1271 Rocket 3.5 20:42:38 15° SSE 20:45:12 34° E 20:48:31 10° NNE
USA 290 2.9 20:42:28 10° SW 20:45:36 53° WNW 20:48:46 10° NNE
Okean 1-7 3.0 20:43:20 14° S 20:46:47 66° E 20:50:54 10° NNE
ARIANE 5 R/B 3.2 20:43:26 13° S 20:47:14 50° W 20:51:37 10° NNW
NOSS 2-1 (C) 3.0 20:44:48 10° NW 20:48:03 89° SW 20:52:11 10° SE
NOSS 3-1 (C) 4.3 20:41:50 10° NW 20:48:30 52° SW 20:56:11 12° SSE
NOSS 2-1 (E) 3.0 20:48:14 10° NW 20:51:31 88° NE 20:55:42 10° SE
Cosmos 1953 4.4 20:49:55 10° NW 20:52:29 18° W 20:55:02 10° SW
Cosmos 1140 Rocket 3.6 20:48:02 10° SSW 20:53:11 77° WNW 20:58:20 10° NNE
SL-4 R/B 2.9 20:49:57 10° SSW 20:53:26 27° SSE 20:56:50 10° E
Spot 4 4.2 20:51:34 14° S 20:55:40 59° WSW 21:00:28 10° NNW
USA 305 1.9 20:53:04 10° WSW 20:56:31 59° S 20:59:07 10° E
Cosmos 2227 4.4 20:51:40 11° SSW 20:56:52 57° ESE 21:02:23 10° NE
PSLV R/B 4.1 20:53:25 10° NNE 20:57:34 47° E 21:00:58 15° S
CZ-2C R/B 4.3 20:53:48 10° ESE 20:58:15 29° NE 21:02:48 10° N
Cosmos 1300 Rocket 4.0 20:58:31 10° N 21:02:53 57° ENE 21:06:44 13° SSE
Cosmos 1703 3.8 21:01:19 10° SSW 21:04:40 45° WNW 21:08:03 10° N
SJ 16-02 2.9 21:02:23 12° SE 21:05:17 22° E 21:08:37 10° NE
DNEPR-1 R/B 4.3 21:04:08 10° WSW 21:09:38 68° NW 21:14:17 10° NE
USA 234 4.4 21:07:28 10° ENE 21:12:31 23° SE 21:16:31 14° S
Cosmos 1892 3.2 21:10:55 11° SW 21:13:34 39° WNW 21:16:26 10° N
Cosmos 407 Rocket 3.5 21:11:01 10° SSW 21:16:09 84° WNW 21:21:18 10° NNE
Cosmos 1844 Rocket 2.8 21:13:11 12° SSW 21:18:19 63° ESE 21:23:57 10° NE
USA 59 Rocket -0.1 21:15:21 10° WNW 21:18:39 52° SW 21:22:35 12° SSE
Cosmos 2228 Rocket 3.8 21:17:13 10° SSW 21:21:33 49° WNW 21:25:52 10° N
Cosmos 1844 3.8 21:18:00 13° SSW 21:22:54 61° ESE 21:28:23 10° NE
Cosmos 1782 Rocket 3.6 21:18:45 10° N 21:23:11 82° ENE 21:26:53 15° SSE
ATLAS 3B R/B 3.3 21:15:40 10° NW 21:23:38 77° NE 21:31:24 10° ESE
Cosmos 2251 Rocket 3.6 21:18:42 12° SSW 21:23:39 79° ESE 21:29:02 10° NNE
Cosmos 1703 Rocket 3.5 21:22:23 16° S 21:25:51 79° E 21:30:11 10° NNE
USA 307 3.8 21:27:39 17° S 21:29:32 24° SE 21:32:46 10° E
Landsat 5 4.2 21:25:44 10° N 21:29:55 52° WNW 21:34:00 10° SW
Cosmos 1954 Rocket 4.2 21:27:39 14° S 21:32:00 61° ESE 21:37:08 10° NNE
Tsikada Rocket 4.2 21:27:23 14° S 21:32:44 68° E 21:38:59 10° NNE
Meteor 1-24 Rocket 4.0 21:31:31 14° S 21:36:41 73° E 21:42:34 10° NNE
NOSS 3-1 (A) 4.2 21:30:06 10° NW 21:36:49 52° SW 21:44:58 10° SSE
Cosmos 1190 Rocket 4.0 21:32:22 13° SSW 21:37:08 79° ESE 21:42:25 10° NNE
Cosmos 2279 Rocket 4.2 21:33:44 10° N 21:39:56 68° ENE 21:46:00 10° SSE
ALOS 2 3.9 21:37:03 13° SSW 21:40:26 30° W 21:44:20 10° NNW
Cosmos 841 Rocket 3.6 21:37:52 10° NNW 21:43:05 63° WSW 21:47:36 14° S
ATLAS 2AS CENTAUR R/B 3.3 21:37:43 14° S 21:43:26 41° ESE 21:49:49 10° NE
Cosmos 2034 Rocket 4.5 21:41:54 10° NNW 21:47:53 52° W 21:53:15 13° SSW
Cosmos 1606 2.1 21:45:39 10° N 21:48:44 79° ENE 21:51:00 17° SSE
Cosmos 2227 Rocket 4.4 21:44:13 10° W 21:48:54 26° NNW 21:53:37 10° NNE
Meteor 2-5 Rocket 3.9 21:45:20 14° S 21:50:31 84° ESE 21:56:31 10° NNE
Meteor 2-17 Rocket 4.4 21:46:04 14° S 21:51:22 90° SE 21:57:29 10° NNE
Cosmos 2263 Rocket 3.9 21:47:51 10° W 21:52:59 33° NW 21:58:10 10° NNE
SL-24 R/B - RUBIN 2 3.8 21:48:51 10° NW 21:54:05 88° NE 21:58:43 10° SE
Cosmos 1833 Rocket 2.7 21:50:10 10° NW 21:55:50 88° NE 22:01:28 10° SSE
Cosmos 2242 Rocket 4.1 21:54:28 14° SSE 21:58:10 50° E 22:02:29 10° NNE
H-2A R/B 2.4 21:55:56 11° SSE 21:59:23 64° ENE 22:03:00 10° N
SeaSat 1 3.3 21:57:56 15° S 22:01:31 34° WSW 22:06:00 10° NW
Cosmos 1869 4.2 22:02:35 10° N 22:06:07 40° ENE 22:09:38 10° SE
NOSS 2-1 (D) 4.5 22:05:52 10° WNW 22:08:48 24° SW 22:11:23 15° S
Landsat 4 3.1 22:08:13 14° SSE 22:10:38 78° ENE 22:13:33 10° NNW
CZ-2C R/B 3.8 22:06:31 10° NNE 22:11:52 47° E 22:16:36 12° S
Sich 1 Rocket 4.3 22:15:24 10° N 22:19:45 51° ENE 22:24:06 10° SSE
Cosmos 1271 Rocket 4.2 22:16:50 10° SW 22:19:58 27° WNW 22:23:06 10° N
Cosmos 1634 Rocket 4.4 22:14:05 10° NNW 22:20:10 53° W 22:25:39 13° SSW
Cosmos 968 Rocket 3.9 22:18:11 13° S 22:22:38 55° ESE 22:27:45 10° NE
USA 305 1.4 22:22:00 10° W 22:24:57 57° S 22:26:59 10° ESE
Resurs 1-4 Rocket 4.4 22:22:34 10° NE 22:25:32 15° E 22:28:31 10° ESE
Cosmos 2082 Rocket 3.2 22:20:04 10° NNW 22:25:38 51° NE 22:31:12 10° ESE
Cosmos 1674 Rocket 4.4 22:24:21 10° SSE 22:28:21 42° E 22:32:28 10° NNE
SL-4 R/B 2.2 22:27:04 10° WSW 22:30:57 45° S 22:34:40 10° ESE
Cosmos 1328 4.1 22:28:07 13° SSW 22:31:07 48° WNW 22:34:39 10° N
USA 229 DEB 4.0 22:23:57 10° NW 22:31:10 75° SW 22:39:11 10° SE
USA 229 3.9 22:24:03 10° NW 22:31:17 75° SW 22:39:17 10° SE
Cosmos 2278 Rocket 3.8 22:30:01 10° SSE 22:34:30 25° ESE 22:39:01 10° NE
CZ-2C R/B 2.7 22:33:05 11° S 22:38:08 66° WSW 22:43:29 10° NNW
CZ-2D R/B 4.3 22:35:52 10° NE 22:39:34 18° E 22:43:11 10° SE
Cosmos 1943 Rocket 3.7 22:37:01 10° SSE 22:41:22 24° ESE 22:45:43 10° NE
Cosmos 2151 Rocket 3.6 22:38:30 10° NNW 22:42:56 80° W 22:47:23 10° S
SJ 16-02 1.6 22:38:57 11° SW 22:43:06 61° WNW 22:47:25 10° NNE
Cosmos 371 Rocket 3.4 22:41:02 13° SSW 22:45:25 75° ESE 22:50:17 10° NNE
Okean 2 Rocket 3.1 22:41:23 10° NNW 22:45:54 88° W 22:50:22 10° S
Cosmos 1741 Rocket 4.1 22:46:20 12° SSW 22:51:16 78° ESE 22:56:37 10° NNE
Okean 1 Rocket 3.1 22:51:45 10° NNW 22:56:14 89° WSW 23:00:42 10° S
USA 234 3.4 22:50:06 10° ENE 22:56:32 57° SSE 23:02:58 10° SW
USA 307 2.8 22:55:20 10° WSW 22:59:10 55° SSE 23:03:00 10° E
Nadezhda 4 Rocket 4.1 22:53:38 10° S 22:59:50 80° E 23:06:08 10° NNE
Cosmos 1844 Rocket 3.9 22:57:16 10° WSW 23:02:33 38° NW 23:07:52 10° NNE
Cosmos 1025 Rocket 3.4 23:00:33 10° S 23:04:41 58° E 23:08:54 10° NNE
USA 81 4.4 23:00:39 10° S 23:05:51 63° E 23:11:04 10° NNE
Cosmos 1570 Rocket 4.3 23:01:17 10° NNW 23:06:40 74° ENE 23:12:00 10° SE
Cosmos 1378 Rocket 3.7 23:03:30 11° SSW 23:07:42 70° WNW 23:12:06 10° N
In-Cosmos 22 Rocket 4.3 23:02:48 10° S 23:08:28 87° ESE 23:14:18 10° NNE
ADEOS II 4.1 23:07:14 10° NE 23:11:17 22° E 23:15:20 10° SE
Cosmos 1340 Rocket 3.3 23:09:57 10° NNW 23:13:35 41° W 23:17:13 10° SSW
Cosmos 158 Rocket 4.0 23:08:36 10° NNW 23:13:41 62° WSW 23:18:36 10° S
ATLAS 3B R/B 3.4 23:06:46 10° NW 23:14:09 45° WSW 23:21:18 10° S
Cosmos 2208 Rocket 4.4 23:09:11 10° NNW 23:14:21 66° ENE 23:19:30 10° SE
Nimbus 7 Rocket 4.5 23:12:16 10° NNE 23:18:12 82° WNW 23:24:09 10° SSW
Cosmos 2084 3.9 23:14:15 10° NW 23:18:15 61° NNE 23:22:10 10° ESE
Timation 1 Rocket 4.4 23:16:57 10° NW 23:22:59 82° WSW 23:29:00 10° SSE
Cosmos 304 Rocket 4.2 23:22:59 10° SW 23:27:40 58° WNW 23:32:24 10° NNE
FENGYUN 3A 4.3 23:22:52 10° NNE 23:28:07 51° E 23:33:20 10° S
Cosmos 2026 Rocket 4.2 23:22:58 10° S 23:29:14 75° E 23:35:27 10° NNE
MOZ.5/SAFIR/RUBIN 5/SL-8 3.8 23:25:56 10° S 23:30:29 65° WSW 23:35:05 10° NNW
BREEZE-M DEB (TANK) 3.3 23:30:52 10° SW 23:33:42 22° S 23:35:34 10° ESE
ATLAS 2AS CENTAUR R/B 2.9 23:26:56 10° WSW 23:34:02 76° NW 23:40:56 10° NE
H-2A R/B 4.1 23:31:52 10° SW 23:34:08 16° W 23:36:24 10° NW
IDEFIX/ARIANE 42P 2.7 23:30:13 10° NNE 23:35:31 85° ESE 23:40:45 10° SSW
H-2A R/B 2.3 23:31:51 10° NNE 23:35:49 58° ESE 23:39:45 10° S
Cosmos 1833 Rocket 4.0 23:34:53 10° NW 23:39:05 22° WSW 23:43:16 10° SSW
Cosmos 1515 3.1 23:38:56 10° N 23:41:39 70° ENE 23:44:21 10° SSE
Cosmos 1455 Rocket 3.1 23:38:08 10° NNW 23:42:30 67° W 23:46:47 10° S
MSX 3.9 23:38:54 10° NNE 23:44:41 89° ESE 23:50:25 10° SSW
Cosmos 220 Rocket 3.9 23:40:48 10° NNW 23:44:57 76° WSW 23:49:07 10° SSE
